Location: Newark
(45.2862°N, 9.8850°E)
Time: 10:42:46
(UTC+00:00)

ISS - Pass Details

Date: 24 December 2019
Orbit: 415 x 421 km, 51.6° (Epoch: 19 January)

Event Time Altitude Azimuth Distance (km) Brightness Sun altitude
Exits shadow 06:00:56 - 243° (WSW) 1,993 -0.7 -9.6°
Reaches altitude 10° 06:02:11 10° 244° (WSW) 1,484 -1.4 -9.4°
Maximum altitude 06:05:31 79° 331° (NNW) 426 -3.8 -8.9°
Drops below altitude 10° 06:08:52 10° 59° (ENE) 1,492 -0.5 -8.4°
Sets 06:10:58 0° 61° (ENE) 2,358 0.6 -8.0°
